CW1575 Weather Reports


time (UTC)temp
C
wind
direction
speed
KPH
gust
KPH
rain 1hr
cm
rain 24hr
cm
rain mn
cm
humidity
%
barometer
mb
20260505171504 2 0 3.2 4.8 0.00 0.56 0.28 94 1008.4
20260505171004 2 0 3.2 4.8 0.00 0.56 0.28 94 1008.4
20260505170503 2 0 3.2 4.8 0.03 0.56 0.28 94 1008.3
20260505165004 2 0 3.2 4.8 0.03 0.56 0.28 94 1008.3
20260505164504 2 0 3.2 8.0 0.03 0.56 0.28 94 1008.3
20260505164004 2 0 3.2 4.8 0.03 0.56 0.28 94 1008.4
20260505163503 2 0 1.6 4.8 0.03 0.56 0.28 94 1008.4
20260505163004 2 0 1.6 4.8 0.03 0.56 0.28 94 1008.4
20260505162504 2 0 3.2 4.8 0.03 0.56 0.28 94 1008.3
20260505162004 2 0 3.2 4.8 0.03 0.56 0.28 94 1008.3
20260505161503 2 0 3.2 4.8 0.03 0.56 0.28 94 1008.3
20260505161004 2 0 3.2 4.8 0.03 0.56 0.28 94 1008.2
20260505160504 2 0 1.6 4.8 0.00 0.53 0.25 94 1008.2
20260505153004 2 0 4.8 8.0 0.03 0.53 0.25 94 1008.3
20260505152504 2 0 3.2 4.8 0.03 0.53 0.25 94 1008.4
20260505152004 2 0 3.2 8.0 0.03 0.53 0.25 94 1008.3
20260505151503 1 0 1.6 4.8 0.03 0.53 0.25 94 1008.2
20260505150503 1 0 3.2 8.0 0.05 0.53 0.25 94 1008.2
20260505140504 1 0 3.2 8.0 0.03 0.48 0.20 93 1008.5
20260505125004 1 0 3.2 8.0 0.05 0.43 0.15 93 1007.1
20260505124503 1 0 3.2 9.7 0.08 0.43 0.15 93 1007.1
20260505124004 1 0 3.2 12.9 0.08 0.43 0.15 92 1007.1
20260505123504 2 0 6.4 12.9 0.08 0.43 0.15 92 1006.9
20260505123004 2 0 4.8 19.3 0.08 0.43 0.15 92 1006.9
20260505122504 2 0 6.4 19.3 0.08 0.41 0.13 92 1006.9
20260505122004 2 0 4.8 16.1 0.08 0.41 0.13 92 1006.9
20260505121504 2 0 8.0 19.3 0.08 0.41 0.13 92 1006.7
20260505121003 2 0 4.8 12.9 0.10 0.41 0.13 92 1006.6
20260505120005 2 0 4.8 12.9 0.08 0.38 0.10 92 1006.4
20260505115505 2 0 4.8 19.3 0.08 0.38 0.10 92 1006.3
20260505114504 3 0 8.0 14.5 0.05 0.36 0.08 92 1006.2
20260505114005 3 0 4.8 19.3 0.05 0.36 0.08 92 1006.1
20260505113005 3 0 8.0 22.5 0.05 0.36 0.08 92 1005.8
20260505112505 3 0 9.7 19.3 0.03 0.33 0.05 92 1005.9
20260505112005 3 0 3.2 16.1 0.05 0.33 0.05 92 1005.9
20260505111505 3 0 6.4 16.1 0.05 0.33 0.05 91 1005.8
20260505111005 3 0 8.0 20.9 0.03 0.30 0.03 91 1005.7
20260505110504 3 0 8.0 19.3 0.03 0.30 0.03 91 1005.7
20260505102004 5 0 9.7 22.5 0.00 0.28 0.00 92 1004.5
20260505101504 5 0 9.7 22.5 0.00 0.28 0.00 92 1004.4
20260505100504 5 0 8.0 16.1 0.00 0.28 0.00 92 1004.3
20260505100005 5 0 4.8 19.3 0.00 0.28 0.00 92 1004.1
20260505095504 5 0 8.0 19.3 0.00 0.28 0.00 92 1004.0
20260505094504 5 0 8.0 19.3 0.00 0.28 0.00 91 1003.9
20260505094006 5 0 11.3 19.3 0.00 0.28 0.00 91 1003.9
20260505093004 5 0 8.0 14.5 0.00 0.28 0.00 91 1003.9
20260505092504 5 0 8.0 20.9 0.00 0.28 0.00 91 1003.8
20260505092005 6 0 8.0 19.3 0.00 0.28 0.00 91 1003.8
20260505091505 6 0 9.7 20.9 0.00 0.28 0.00 91 1003.7
20260505091004 6 0 8.0 29.0 0.00 0.28 0.00 90 1003.5
20260505090004 6 0 11.3 22.5 0.00 0.28 0.00 90 1003.4
20260505085504 7 0 9.7 20.9 0.00 0.28 0.00 91 1003.3
20260505085005 7 0 6.4 19.3 0.00 0.28 0.00 90 1003.2
20260505084504 7 0 8.0 19.3 0.00 0.28 0.00 91 1003.2
20260505084004 8 0 12.9 19.3 0.00 0.28 0.00 92 1003.2
20260505083505 8 0 1.6 4.8 0.00 0.28 0.00 92 1003.2
20260505083005 8 0 1.6 9.7 0.00 0.28 0.00 92 1003.3
20260505082505 8 0 1.6 4.8 0.00 0.28 0.00 92 1003.4
20260505082005 7 0 1.6 4.8 0.00 0.28 0.00 92 1003.3
20260505081005 7 0 0.0 0.0 0.00 0.28 0.00 92 1003.4
20260505080504 7 0 0.0 0.0 0.00 0.28 0.00 92 1003.4
20260505080004 7 0 0.0 0.0 0.00 0.28 0.00 92 1003.3
20260505075504 7 0 0.0 0.0 0.00 0.28 0.00 92 1003.2
20260505075005 7 0 0.0 0.0 0.00 0.28 0.00 91 1003.3
20260505074505 7 0 0.0 0.0 0.00 0.28 0.00 91 1003.3
20260505074005 7 0 0.0 0.0 0.00 0.28 0.00 91 1003.2
20260505073004 7 0 0.0 0.0 0.00 0.28 0.00 91 1003.4
20260505072005 7 0 0.0 0.0 0.00 0.28 0.00 91 1003.4
20260505071504 7 0 0.0 0.0 0.00 0.28 0.00 91 1003.4
20260505071005 7 0 0.0 1.6 0.00 0.28 0.00 91 1003.4
20260505070505 7 0 0.0 1.6 0.00 0.28 0.00 91 1003.6
20260505065004 7 0 0.0 0.0 0.00 0.28 0.00 90 1003.5
20260505064504 7 0 0.0 3.2 0.03 0.28 0.00 90 1003.5
20260505064005 7 0 0.0 3.2 0.03 0.28 0.00 90 1003.4
20260505063505 7 0 0.0 1.6 0.03 0.28 0.00 90 1003.5
20260505063004 7 0 0.0 0.0 0.03 0.28 0.00 90 1003.5
20260505062504 7 0 0.0 1.6 0.03 0.28 0.00 90 1003.4
20260505062005 7 0 0.0 1.6 0.03 0.28 0.00 90 1003.5
20260505061504 7 0 0.0 0.0 0.03 0.28 0.00 89 1003.4
20260505061004 7 0 0.0 0.0 0.03 0.28 0.00 89 1003.5
20260505060504 7 0 0.0 0.0 0.03 0.28 0.00 89 1003.4
20260505060004 7 0 0.0 0.0 0.03 0.28 0.00 89 1003.3
20260505055004 7 0 0.0 0.0 0.03 0.28 0.28 88 1003.4
20260505054504 7 0 0.0 0.0 0.00 0.25 0.25 88 1003.4
20260505053504 7 0 0.0 1.6 0.00 0.25 0.25 88 1003.1
20260505052505 8 0 0.0 0.0 0.00 0.25 0.25 88 1003.1
20260505052004 8 0 0.0 0.0 0.00 0.25 0.25 88 1003.1
20260505051505 8 0 0.0 0.0 0.03 0.25 0.25 88 1003.2
20260505051004 8 0 0.0 0.0 0.03 0.25 0.25 88 1003.5
20260505050504 8 0 0.0 0.0 0.05 0.25 0.25 88 1003.5
20260505041504 8 0 0.0 3.2 0.20 0.23 0.23 85 1003.7
20260505041005 8 0 0.0 3.2 0.23 0.23 0.23 84 1003.7
20260505040004 9 0 0.0 1.6 0.20 0.20 0.20 83 1003.4
20260505035505 9 0 0.0 4.8 0.18 0.18 0.18 83 1003.3
20260505035004 9 0 1.6 4.8 0.18 0.18 0.18 82 1003.4
20260505033005 10 0 3.2 9.7 0.10 0.10 0.10 78 1003.6
20260505032504 11 0 1.6 8.0 0.08 0.08 0.08 77 1003.5
20260505032004 11 0 0.0 4.8 0.05 0.05 0.05 75 1003.4
20260505031504 11 0 1.6 4.8 0.03 0.03 0.03 73 1003.2
20260505031005 11 0 3.2 12.9 0.00 0.00 0.00 70 1003.1
20260505030004 11 0 4.8 14.5 0.00 0.00 0.00 67 1002.8
20260505025505 11 0 1.6 8.0 0.00 0.00 0.00 67 1002.5
20260505024504 12 0 3.2 8.0 0.00 0.00 0.00 66 1002.1
20260505024004 12 0 0.0 4.8 0.00 0.00 0.00 67 1001.9
20260505023005 12 0 0.0 8.0 0.00 0.00 0.00 64 1001.7
20260505022504 12 0 4.8 12.9 0.00 0.00 0.00 63 1001.6
20260505022005 12 0 4.8 19.3 0.00 0.00 0.00 60 1001.5
20260505021504 12 0 9.7 19.3 0.00 0.00 0.00 58 1001.6
20260505021004 13 0 0.0 0.0 0.00 0.00 0.00 55 1001.4
20260505020504 13 0 0.0 0.0 0.00 0.00 0.00 55 1001.3
20260505020004 13 0 0.0 1.6 0.00 0.00 0.00 54 1001.4
20260505015504 13 0 0.0 1.6 0.00 0.00 0.00 54 1001.4
20260505015005 13 0 0.0 0.0 0.00 0.00 0.00 54 1001.4
20260505014004 13 0 0.0 0.0 0.00 0.00 0.00 53 1000.9
20260505013504 13 0 0.0 0.0 0.00 0.00 0.00 54 1000.7
20260505013004 13 0 0.0 0.0 0.00 0.00 0.00 54 1000.9
20260505012504 13 0 0.0 0.0 0.00 0.00 0.00 54 1001.1
20260505011504 13 0 0.0 0.0 0.00 0.00 0.00 53 1000.9
20260505011004 14 0 0.0 1.6 0.00 0.00 0.00 51 1000.8
20260505010504 14 0 0.0 1.6 0.00 0.00 0.00 51 1001.0
20260505005504 14 0 0.0 1.6 0.00 0.00 0.00 51 1001.0
20260505005005 15 0 1.6 4.8 0.00 0.00 0.00 50 1000.9
20260505004504 15 0 1.6 4.8 0.00 0.00 0.00 49 1001.1
20260505004004 15 0 1.6 4.8 0.00 0.00 0.00 47 1001.2
20260505003504 15 0 1.6 16.1 0.00 0.00 0.00 46 1001.2
20260505003004 15 0 4.8 19.3 0.00 0.00 0.00 45 1001.0
20260505002004 15 0 4.8 14.5 0.00 0.00 0.00 44 1000.8
20260505001504 15 0 4.8 14.5 0.00 0.00 0.00 43 1000.7
20260505001005 15 0 4.8 12.9 0.00 0.00 0.00 42 1000.5
20260505000504 16 0 3.2 9.7 0.00 0.00 0.00 42 1000.4
20260505000004 16 0 1.6 14.5 0.00 0.00 0.00 41 1000.2
20260504235504 16 0 1.6 14.5 0.00 0.00 0.00 41 1000.1
20260504235004 16 0 3.2 12.9 0.00 0.00 0.00 41 1000.0
20260504234504 16 0 4.8 14.5 0.00 0.00 0.00 40 999.7
20260504234004 16 0 3.2 12.9 0.00 0.00 0.00 39 999.6
20260504233504 16 0 8.0 19.3 0.00 0.00 0.00 39 999.6
20260504233004 16 0 8.0 19.3 0.00 0.00 0.00 39 999.6
20260504231504 17 0 9.7 19.3 0.00 0.00 0.00 38 999.4
20260504231004 17 0 9.7 22.5 0.00 0.00 0.00 38 999.4
20260504230504 17 0 4.8 19.3 0.00 0.00 0.00 38 999.3
20260504230005 17 0 11.3 20.9 0.00 0.00 0.00 38 999.3
20260504225504 17 0 14.5 24.1 0.00 0.00 0.00 37 999.2
20260504225004 17 0 9.7 16.1 0.00 0.00 0.00 37 999.2
20260504224504 17 0 9.7 19.3 0.00 0.00 0.00 38 999.2
20260504224004 17 0 6.4 19.3 0.00 0.00 0.00 38 999.2
20260504223004 17 0 8.0 16.1 0.00 0.00 0.00 36 999.4
20260504222504 17 0 3.2 16.1 0.00 0.00 0.00 35 999.3
20260504222004 17 0 4.8 14.5 0.00 0.00 0.00 34 999.4
20260504221503 17 0 9.7 19.3 0.00 0.00 0.00 33 999.2
20260504221004 18 0 6.4 19.3 0.00 0.00 0.00 33 999.2
20260504220504 18 0 8.0 19.3 0.00 0.00 0.00 33 999.1
20260504220004 18 0 9.7 22.5 0.00 0.00 0.00 32 998.9
20260504215503 19 0 6.4 24.1 0.00 0.00 0.00 31 998.7
20260504215004 20 0 8.0 22.5 0.00 0.00 0.00 30 998.5
20260504214504 20 0 12.9 29.0 0.00 0.00 0.00 29 998.3
20260504214004 21 0 9.7 32.2 0.00 0.00 0.00 27 998.2
20260504213504 21 0 3.2 12.9 0.00 0.00 0.00 25 997.8
20260504212504 21 0 4.8 8.0 0.00 0.00 0.00 26 997.9
20260504212004 21 0 3.2 12.9 0.00 0.00 0.00 27 998.0
20260504211004 20 0 3.2 14.5 0.00 0.00 0.00 28 998.2
20260504210004 20 0 3.2 16.1 0.00 0.00 0.00 27 998.3
20260504205504 19 0 6.4 16.1 0.00 0.00 0.00 27 998.4
20260504205004 19 0 3.2 14.5 0.00 0.00 0.00 30 998.4
20260504204504 18 0 8.0 14.5 0.00 0.00 0.00 31 998.5
20260504204004 18 0 8.0 22.5 0.00 0.00 0.00 30 998.7
20260504203004 18 0 4.8 19.3 0.00 0.00 0.00 31 998.9
20260504202504 17 0 8.0 20.9 0.00 0.00 0.00 30 998.9
20260504202004 17 0 1.6 16.1 0.00 0.00 0.00 32 999.0
20260504201504 17 0 4.8 16.1 0.00 0.00 0.00 33 998.9
20260504201004 17 0 8.0 24.1 0.00 0.00 0.00 33 998.8
20260504200504 17 0 8.0 24.1 0.00 0.00 0.00 34 998.8
20260504200004 17 0 6.4 16.1 0.00 0.00 0.00 38 999.0
20260504195504 17 0 8.0 16.1 0.00 0.00 0.00 35 999.1
20260504195004 17 0 8.0 24.1 0.00 0.00 0.00 39 999.4
20260504194504 17 0 3.2 14.5 0.00 0.00 0.00 33 999.6
20260504194004 17 0 3.2 4.8 0.00 0.00 0.00 38 999.9
20260504193504 17 0 1.6 4.8 0.00 0.00 0.00 34 1000.0
20260504193004 17 0 3.2 19.3 0.00 0.00 0.00 32 1000.0
20260504192503 17 0 1.6 9.7 0.00 0.00 0.00 31 999.9
20260504191505 18 0 4.8 16.1 0.00 0.00 0.00 29 999.3
20260504190004 20 295 8.0 27.4 0.00 0.00 0.00 27 998.8
20260504185504 21 0 16.1 32.2 0.00 0.00 0.00 26 998.5
20260504184504 21 4 1.6 14.5 0.00 0.00 0.00 23 998.1
20260504184005 22 354 4.8 16.1 0.00 0.00 0.00 22 998.0
20260504183504 22 4 4.8 14.5 0.00 0.00 0.00 22 998.1
20260504183004 22 18 8.0 16.1 0.00 0.00 0.00 22 998.1
20260504182503 22 24 6.4 20.9 0.00 0.00 0.00 23 998.1
20260504182004 22 45 4.8 16.1 0.00 0.00 0.00 22 998.2
20260504181503 22 356 11.3 22.5 0.00 0.00 0.00 22 998.1
20260504181004 22 3 4.8 19.3 0.00 0.00 0.00 23 998.2
20260504180503 23 336 11.3 25.7 0.00 0.00 0.00 23 998.4
20260504180004 23 351 8.0 19.3 0.00 0.00 0.00 21 998.5
20260504175504 23 0 4.8 19.3 0.00 0.00 0.00 22 998.4
20260504175004 23 0 9.7 19.3 0.00 0.00 0.00 23 998.5
20260504174504 23 0 3.2 8.0 0.00 0.00 0.00 24 998.6
20260504174004 23 0 0.0 4.8 0.00 0.00 0.00 23 998.8
20260504173503 23 0 1.6 4.8 0.00 0.00 0.00 26 999.0
20260504173004 22 0 4.8 9.7 0.00 0.00 0.00 23 999.2
20260504172503 22 0 1.6 9.7 0.00 0.00 0.00 24 999.2
20260504172004 22 0 1.6 4.8 0.00 0.00 0.00 24 999.2